Regional Weather Roundup
Issued by NWS

Home | Current Version | Previous Version | Text Only | Print | Product List | Glossary Off
Versions: 1 2 3 4 5 6 7 8 9 10 11 12 13 14 15 16 17 18 19 20 21 22 23 24 25 26 27 28 29 30 31 32 33 34 35 36 37 38 39 40 41 42 43 44 45 46 47 48 49 50

000
ASUS43 KDMX 220107
RWRIA

WEATHER ROUNDUP FOR IOWA
NATIONAL WEATHER SERVICE DES MOINES IA
800 PM CDT MON JUL 21 2014

NOTE: "FAIR" INDICATES FEW OR NO CLOUDS BELOW 12,000 FEET WITH NO
SIGNIFICANT WEATHER AND/OR OBSTRUCTIONS TO VISIBILITY.

* - THESE STATIONS ARE NOT NWS STATIONS...THUS NOT UNDER NWS
QUALITY CONTROL.  THEY ALSO DO NOT REPORT WEATHER SUCH
AS PRECIPITATION OR FOG.

IAZ001>003-012>014-020>022-031>034-043>046-220200-
   NORTHWEST IOWA

CITY           SKY/WX    TMP DP  RH WIND       PRES   REMARKS
CARROLL *      CLEAR     84  79  84 S8        29.86S HX  96
CHEROKEE *     CLOUDY    86  79  79 S9        29.82S HX  99
DENISON *      CLEAR     88  81  79 S13G22    29.83S HX 105
LE MARS *      CLEAR     88  79  74 S8        29.80S HX 102
ORANGE CITY *  CLEAR     88  79  74 S7        29.81F HX 102
SHELDON *      CLEAR     84  79  84 SE9       29.81F HX  96
SIOUX CITY     PTCLDY    89  78  70 SE7       29.79F HX 103
SPENCER        CLOUDY    85  77  77 SE9       29.84S HX  95
STORM LAKE *   CLEAR     82  81  94 S7        29.86S HX  95
$$

IAZ055>058-069>071-079>083-090>094-220200-
   SOUTHWEST IOWA

CITY           SKY/WX    TMP DP  RH WIND       PRES   REMARKS
ATLANTIC *     CLEAR     86  77  74 S8        29.86F HX  97
AUDUBON *      CLEAR     88  81  79 S7        29.88F HX 105
CLARINDA *     CLEAR     86  79  79 S8        29.89F HX  99
COUNCIL BLFS * CLEAR     86  82  89 S12       29.84S HX 105
CRESTON *      CLEAR     84  77  79 S12       29.92S HX  94
HARLAN  *      CLEAR     86  79  79 S8        29.89S HX  99
LAMONI         CLEAR     85  76  74 S9        29.93R HX  94
RED OAK *      CLEAR     88  79  74 S9        29.87S HX 102
SHENANDOAH *   CLEAR     88  79  74 S12       29.87S HX 102
$$

IAZ047>049-059>061-072>074-084-220200-
   CENTRAL IOWA

CITY           SKY/WX    TMP DP  RH WIND       PRES   REMARKS
AMES           MOCLDY    86  76  71 S7        29.89S HX  96
ANKENY *       CLOUDY    88  77  70 S7        29.89S HX 100
CHARITON *     CLEAR     86  77  74 S13       29.93R HX  97
DES MOINES     PTCLDY    88  76  67 S10       29.90R HX  99
GRINNELL*      PTCLDY    84  75  74 S10       29.94R HX  92
KNOXVILLE *    CLEAR     86  75  70 S10G18    29.91R HX  95
MARSHALLTOWN   CLOUDY    85  76  74 S12       29.92R HX  94
PELLA *        PTCLDY    86  75  70 S9        29.93R HX  95
PERRY *          N/A     86  77  74 S9        29.88S HX  97
$$

IAZ004>006-015-016-023>025-035-036-220200-
   NORTH CENTRAL IOWA

CITY           SKY/WX    TMP DP  RH WIND       PRES   REMARKS
ALGONA *       CLEAR     84  79  84 SE9       29.86F HX  96
CLARION *      MOCLDY    84  77  79 SE6       29.88F HX  94
ESTHERVILLE    MOCLDY    82  76  81 SE12      29.84F HX  89
FORT DODGE *   MOCLDY    86  77  74 S7        29.87S HX  97
MASON CITY     MOCLDY    84  77  79 S13       29.91F HX  94
FOREST CITY *  PTCLDY    82  77  83 SE9       29.88F HX  91
IOWA FALLS *   CLOUDY    84  75  74 SE7       29.92S HX  92
$$

IAZ007>011-017>019-026>030-037>042-050>054-066-220200-
   NORTHEAST IOWA

CITY           SKY/WX    TMP DP  RH WIND       PRES   REMARKS
CEDAR RAPIDS   PTCLDY    81  71  71 S12       29.95S HX  85
CHARLES CITY * CLOUDY    82  75  78 SE12      29.93S HX  89
DECORAH *      CLOUDY    81  72  74 S8        29.95S HX  84
DUBUQUE        CLEAR     78  71  79 S8        30.00R HX  80
MONTICELLO *   CLEAR     81  70  69 SE12      29.97S HX  84
OELWEIN *      CLEAR     82  75  78 S12G21    29.96S HX  89
WATERLOO       CLOUDY    84  73  69 S12       29.92S HX  90
$$

IAZ064-065-067-068-078-220200-
   EAST CENTRAL IOWA

CITY           SKY/WX    TMP DP  RH WIND       PRES   REMARKS
DAVENPORT      CLEAR     81  68  64 S16       30.00S HX  84
IOWA CITY      PTCLDY    82  71  69 SE12      29.97S HX  86
MT. PLEASANT * CLEAR     82  66  57 SE8       29.98S HX  85
MUSCATINE *    CLEAR     82  70  65 S8        29.98S HX  86
QUAD CITIES    CLEAR     80  68  66 S7        30.00R HX  83
$$

IAZ062-063-075>077-085>089-095>099-220200-
   SOUTHEAST IOWA

CITY           SKY/WX    TMP DP  RH WIND       PRES   REMARKS
BURLINGTON     CLEAR     81  70  69 S8        30.00S HX  84
FAIRFIELD *    CLEAR     84  70  61 S10       29.97S HX  88
FORT MADISON * CLEAR     82  72  69 SE8       30.01S HX  87
KEOKUK *       CLEAR     82  70  65 SE8       29.99S HX  86
OSKALOOSA *      N/A     82  75  78 S12       29.94S HX  89
CENTERVILLE *  CLEAR     82  77  83 SE8       29.96F HX  91
OTTUMWA        CLEAR     83  74  74 S12       29.94S HX  89
WASHINGTON *   CLEAR     82  72  69 S12       29.97S HX  87
$$

ABBREVIATIONS USED IN REMARKS
   TC - TEMPERATURES IN CELSIUS
  WCI - WIND CHILL INDEX
   HX - HEAT INDEX
  VSB - VISIBILITY
$$




USA.gov is the U.S. government's official web portal to all federal, state and local government web resources and services.